Location: Brahman Valley
(40.6513°N, 111.8855°W)
Time: 22:15:28
(UTC+00:00)

Vanguard 2 - Pass Details

Date: 13 May 2021
Orbit: 552 x 2937 km, 32.9° (Epoch: 14 June)

Event Time Altitude Azimuth Distance (km) Brightness Sun altitude
Rises 16:13:14 0° 269° (W) 5,366 11.4 43.8°
Reaches altitude 10° 16:16:22 10° 266° (W) 4,637 11.2 44.3°
Maximum altitude 16:30:07 60° 191° (S) 3,010 11.3 46.8°
Drops below altitude 10° 16:47:33 10° 118° (ESE) 5,730 12.9 50.0°
Sets 16:51:57 0° 115° (ESE) 6,652 12.9 50.7°
